Location: Most
(50.5133°N, 13.6207°E)
Time: 22:07:21
(UTC+02:00)

ISS - Pass Details

Date: 15 September 2019
Orbit: 411 x 421 km, 51.6° (Epoch: 17 September)

Event Time Altitude Azimuth Distance (km) Brightness Sun altitude
Exits shadow 05:32:34 12° 211° (SSW) 1,371 -1.6 -11.3°
Drops below altitude 10° 05:33:25 10° 196° (SSW) 1,485 -1.3 -11.2°
Sets 05:36:27 0° 166° (SSE) 2,346 0.0 -10.7°
